Torna al catalogo

STARLINK-34602

AttivoComunicazioniVLEO
NORAD 65333·PAYLOAD·🇺🇸 United States

Lanciato Aug 27, 2025 da Cape Canaveral Space Force Station

Loading…

Prossimi Passaggi (prossime 24 ore)

TLE

AggiornatoSource: CelesTrak SupGP

Epoca: Sep 14, 2026, 23:00 UTC

1 65333C 25189L   26257.95881944  .00019445  00000+0  62540-3 0  2574
2 65333  53.1597  46.1380 0001137  79.1545 343.6804 15.31687555    12

Traccia STARLINK-34602 in tempo reale con AllMySat

Download on the App Store